Wind_Speed
6 6 5 4 4 4 5 5 5 5 5 4 4 4 4 5 5 4 3 3 3 2 2 1 1 1 1 1 2 2 3 3 2 3 3 2 3 3 3 5 5 6 7
6 6 5 5 5 5 5 5 5 5 5 5 5 5 4 4 5 5 4 4 4 3 2 2 2 1 1 2 1 2 3 3 3 2 3 2 3 4 4 4 5 5 6
6 6 5 5 5 5 5 5 5 5 5 6 5 5 5 4 5 5 5 5 5 4 3 3 2 2 2 2 3 3 3 3 3 3 3 3 3 4 4 4 5 5 5
6 5 5 6 6 6 6 6 5 5 5 5 4 5 5 5 5 5 5 5 5 4 3 3 3 3 3 3 3 3 3 3 3 3 4 4 4 4 5 4 5 5 5
6 6 6 6 6 6 6 6 5 5 5 5 4 4 5 4 5 4 4 4 4 4 4 4 4 4 3 3 3 4 4 4 3 3 4 4 5 5 5 5 6 6 6
6 6 6 6 6 6 6 5 5 5 5 5 5 5 5 5 5 4 4 4 4 5 4 4 4 4 4 4 4 4 4 4 4 4 4 5 5 5 6 6 6 6 7
6 6 7 7 6 6 6 6 6 5 6 6 5 5 5 5 5 4 4 4 4 4 5 4 4 4 5 4 5 5 5 5 5 5 5 5 5 5 6 6 7 8 8
7 7 7 7 7 7 6 6 6 6 6 6 5 5 5 5 5 5 4 5 5 5 5 5 4 5 5 5 5 5 5 5 5 5 5 5 6 6 7 7 8 8 9
7 8 8 8 7 7 7 7 6 6 6 6 5 5 5 5 5 5 5 5 5 5 5 5 5 5 5 5 5 5 5 6 6 5 6 6 7 7 7 8 9 9 10
7 8 8 8 8 7 8 7 7 6 6 6 6 6 6 5 5 5 5 5 5 5 4 5 5 6 6 5 5 5 5 6 6 6 6 7 8 8 9 10 10 11 11
8 8 8 8 8 8 8 8 7 6 6 6 7 7 6 6 6 6 6 5 5 5 4 4 5 5 6 5 5 6 6 6 7 7 8 8 9 9 9 10 11 12 12
9 9 8 9 9 9 9 8 7 7 7 7 7 7 7 7 7 6 6 6 6 5 5 5 5 5 5 6 6 7 7 7 7 8 9 10 10 11 11 12 12 13 13
10 9 9 10 10 9 9 9 9 9 9 8 9 9 8 8 7 7 7 7 7 7 6 6 6 6 7 7 8 8 8 9 9 10 11 11 12 13 13 14 15 15 15
10 11 10 10 11 11 11 10 10 10 10 10 10 10 10 9 9 9 8 8 8 8 7 8 8 8 8 9 10 9 10 10 10 11 12 13 14 15 15 16 16 17 17
11 11 11 11 11 11 12 11 11 11 11 10 10 11 11 11 10 10 10 9 9 8 9 9 10 10 10 10 11 11 11 12 12 13 13 14 15 15 16 16 17 17 17
11 11 11 12 12 12 12 13 12 12 12 11 11 12 12 11 11 11 11 11 11 10 11 12 12 11 12 12 12 13 13 14 14 14 14 15 15 16 16 17 17 18 18
13 12 12 12 12 12 13 14 14 13 12 12 12 12 12 12 12 12 12 12 12 12 13 14 14 14 14 14 15 15 15 15 15 15 16 16 16 17 17 18 18 18 18
14 14 14 13 14 14 14 14 14 14 13 13 13 13 13 13 13 12 13 13 13 13 13 14 15 15 16 16 16 16 16 16 16 15 16 17 17 18 18 18 18 18 19
15 15 15 15 15 15 15 16 16 15 14 14 14 14 14 14 14 14 14 14 14 14 15 15 15 16 16 16 17 17 16 16 16 16 17 17 18 18 18 18 19 19 20
16 16 16 16 16 17 17 17 17 16 16 15 16 15 15 16 16 16 16 15 15 16 16 16 16 16 16 16 17 17 16 16 17 17 18 18 18 19 19 19 20 20 21
17 18 18 17 17 17 18 18 18 18 18 17 17 17 17 17 17 18 17 17 17 17 17 17 16 16 16 17 17 17 17 17 17 18 19 19 19 20 20 21 21 22 23
18 19 19 19 19 19 19 19 18 18 19 18 18 18 18 18 18 19 19 18 18 18 17 17 17 18 18 17 17 17 18 18 19 20 20 20 20 21 22 22 22 23 24
20 20 21 20 20 20 20 19 19 19 20 20 20 20 20 20 20 19 20 19 19 19 19 18 18 18 19 18 18 18 19 19 20 20 20 21 22 22 23 23 24 25 26
21 21 22 22 21 21 20 20 20 20 20 21 21 21 22 21 21 21 20 19 19 19 20 20 19 19 19 19 19 19 20 20 20 21 22 23 24 25 26 26 26 26 27
23 23 23 23 23 22 22 22 21 21 21 21 21 21 22 22 22 21 20 20 19 20 20 20 20 20 20 20 21 21 22 22 23 24 24 24 25 26 26 26 27 27 27
23 23 24 24 24 23 23 23 23 22 22 22 23 23 23 23 23 22 22 22 22 22 21 21 21 21 22 22 22 23 23 24 24 25 25 25 25 25 26 27 27 28 28
Wind_Direction
284 285 289 293 295 297 298 294 289 280 270 261 261 267 261 252 246 250 246 251 261 265 265 286 285 280 298 324 311 321 320 318 297 274 266 247 250 257 261 260 260 259 258
296 287 279 281 296 294 291 288 285 277 272 265 260 256 265 257 245 245 251 254 257 255 264 280 274 278 291 319 311 307 315 323 321 294 272 266 262 260 262 259 255 260 256
294 290 281 280 287 292 291 288 287 273 269 273 263 250 258 263 254 250 252 252 250 251 261 269 267 266 281 301 311 302 309 307 311 310 293 291 293 273 274 269 261 260 260
290 284 277 277 281 285 287 290 286 274 271 273 260 251 254 258 256 256 253 248 245 246 254 258 262 270 271 284 299 310 305 305 304 299 295 294 298 299 299 293 283 277 275
290 283 275 275 279 283 282 285 281 274 275 270 255 255 253 253 254 253 249 244 240 244 252 255 259 266 270 280 289 302 303 294 290 289 289 292 292 295 297 294 288 286 283
291 288 279 277 280 280 277 279 278 277 276 271 260 263 255 251 249 248 244 242 243 246 249 253 256 261 268 279 288 293 294 292 288 285 286 294 294 294 296 298 294 290 287
287 283 279 278 279 278 278 280 275 276 274 268 263 263 253 252 250 252 252 249 248 244 241 248 255 260 265 275 287 292 294 291 290 287 284 286 289 292 295 297 296 293 289
283 280 280 277 276 275 271 276 271 272 268 264 262 256 251 252 253 254 256 257 254 249 245 244 249 259 268 275 282 288 290 291 294 289 286 288 291 293 295 297 296 292 289
284 283 280 278 277 272 266 269 270 268 261 261 263 259 258 256 257 252 252 259 259 253 248 240 247 256 270 282 287 289 289 288 287 287 289 291 295 297 299 298 297 298 298
285 285 282 278 274 270 267 266 266 270 268 261 256 257 261 262 260 256 255 256 253 248 246 253 257 261 270 276 281 288 292 291 286 285 288 292 295 298 296 295 297 298 297
284 286 282 277 273 269 268 266 262 261 266 262 258 257 260 261 261 259 258 254 249 244 249 265 268 266 268 273 279 288 294 294 290 287 289 291 294 296 296 296 297 299 299
283 284 282 277 271 270 270 267 264 263 265 261 254 256 261 262 261 262 258 252 249 248 251 262 268 268 275 280 282 287 291 294 293 292 293 293 294 296 296 296 297 298 298
286 284 282 278 272 269 266 265 266 264 263 260 253 254 258 264 265 263 258 253 251 253 256 259 266 269 277 283 285 284 285 288 288 290 291 293 294 294 295 295 295 295 295
286 287 286 280 272 266 264 261 265 267 264 260 255 255 255 260 264 264 261 259 259 259 258 261 268 274 277 279 282 283 286 289 289 290 292 292 293 294 295 295 295 295 295
282 282 284 281 276 269 264 263 266 266 264 261 257 255 255 257 262 263 261 262 265 262 263 266 272 275 279 282 283 285 286 288 289 290 293 295 294 295 296 296 296 296 296
287 286 285 283 276 270 268 266 266 266 263 261 259 259 257 257 259 263 262 264 265 265 265 267 271 274 277 280 282 284 285 285 287 288 290 292 294 295 297 298 298 298 298
284 284 283 282 280 273 270 266 267 265 263 259 260 261 258 256 259 262 261 264 267 267 267 269 271 272 274 277 281 283 285 287 287 286 289 292 295 296 297 298 299 299 298
282 282 279 279 277 273 270 268 268 268 264 259 259 261 258 257 260 265 264 266 268 270 272 272 272 273 275 277 280 281 284 284 285 287 290 293 295 297 298 299 299 298 299
279 280 280 281 279 275 272 268 269 266 264 261 261 260 258 258 259 264 267 267 269 271 273 274 275 275 276 278 281 282 283 282 282 286 291 294 294 295 296 297 299 299 299
277 279 279 279 279 277 274 271 267 264 263 262 260 261 261 259 261 263 266 269 272 274 276 276 276 277 276 277 280 280 280 281 282 286 289 292 294 295 296 297 298 299 300
276 278 280 278 279 277 274 272 268 265 264 264 262 262 262 262 264 265 267 269 271 274 276 276 276 277 278 278 280 280 279 281 284 286 289 291 294 296 297 297 297 298 300
278 277 278 278 278 276 274 270 264 263 264 264 262 261 263 264 265 267 269 270 271 273 276 276 276 278 279 280 278 278 279 280 284 285 287 290 293 296 297 297 298 299 299
277 277 277 277 276 275 273 270 264 261 263 264 264 263 264 266 266 267 268 268 270 273 273 274 276 278 280 280 278 278 280 282 285 287 288 290 292 295 297 298 300 301 301
277 277 276 276 276 273 270 267 263 261 261 262 264 265 264 264 265 266 267 268 270 273 274 274 275 277 278 278 277 278 282 284 285 287 290 291 293 294 296 297 300 301 302
276 276 276 276 275 272 269 265 262 262 261 262 264 265 265 263 265 266 266 266 268 271 273 275 276 276 277 277 276 279 281 283 285 287 288 290 292 293 293 296 298 300 302
276 276 276 275 273 270 267 265 264 263 261 261 264 265 265 264 265 265 266 267 268 270 272 274 277 279 279 277 277 279 280 283 285 286 288 290 291 293 295 297 298 300 301
Height
5874 5873 5873 5872 5872 5871 5871 5871 5870 5870 5870 5869 5869 5869 5868 5868 5868 5868 5868 5868 5868 5867 5867 5867 5866 5866 5866 5865 5864 5864 5863 5862 5861 5861 5861 5860 5860 5860 5859 5859 5859 5859 5858
5873 5872 5872 5871 5871 5870 5870 5870 5869 5869 5869 5868 5868 5868 5868 5867 5867 5867 5867 5867 5867 5867 5866 5866 5866 5865 5865 5865 5864 5863 5863 5862 5861 5861 5860 5860 5860 5859 5858 5858 5858 5857 5857
5872 5871 5871 5870 5870 5870 5869 5869 5868 5868 5868 5867 5867 5867 5867 5866 5866 5866 5866 5866 5866 5866 5865 5865 5865 5865 5865 5864 5864 5863 5862 5862 5861 5860 5860 5859 5858 5858 5857 5857 5856 5856 5855
5870 5870 5870 5869 5869 5869 5868 5868 5867 5867 5867 5866 5866 5866 5866 5866 5865 5865 5865 5865 5865 5865 5865 5864 5864 5864 5864 5863 5863 5862 5862 5861 5861 5860 5859 5859 5858 5857 5857 5856 5855 5855 5854
5869 5868 5868 5868 5868 5867 5867 5866 5866 5866 5866 5865 5865 5865 5865 5864 5864 5864 5864 5864 5863 5863 5863 5863 5863 5863 5863 5863 5862 5862 5861 5861 5860 5860 5859 5858 5857 5856 5856 5855 5854 5854 5853
5867 5867 5866 5866 5866 5866 5865 5865 5865 5864 5864 5864 5863 5863 5863 5863 5863 5863 5863 5863 5862 5862 5862 5862 5862 5862 5862 5862 5862 5861 5860 5860 5859 5859 5858 5857 5857 5855 5855 5854 5853 5852 5851
5865 5865 5865 5864 5864 5864 5864 5864 5863 5863 5863 5863 5862 5862 5862 5862 5862 5861 5861 5861 5861 5861 5861 5861 5861 5861 5861 5861 5860 5860 5859 5859 5858 5857 5857 5856 5855 5854 5854 5853 5852 5851 5850
5863 5863 5863 5862 5862 5862 5862 5862 5862 5861 5861 5861 5861 5861 5861 5861 5861 5860 5860 5860 5860 5860 5860 5860 5860 5860 5860 5860 5859 5858 5858 5857 5857 5856 5856 5855 5854 5853 5852 5852 5851 5849 5848
5861 5861 5861 5860 5860 5860 5860 5860 5860 5860 5859 5860 5860 5860 5860 5860 5859 5859 5859 5859 5859 5859 5859 5859 5859 5859 5858 5858 5858 5857 5857 5856 5855 5855 5854 5853 5853 5852 5851 5850 5849 5848 5846
5859 5859 5858 5858 5858 5858 5858 5858 5858 5858 5858 5858 5858 5858 5858 5858 5858 5858 5857 5857 5857 5857 5857 5858 5857 5857 5857 5857 5856 5856 5855 5855 5854 5853 5853 5852 5851 5850 5849 5848 5846 5845 5844
5856 5856 5856 5856 5856 5856 5856 5856 5856 5856 5856 5856 5856 5856 5856 5856 5856 5856 5856 5856 5856 5856 5856 5856 5856 5856 5855 5855 5855 5854 5854 5853 5852 5851 5851 5850 5849 5848 5847 5845 5844 5843 5841
5854 5854 5853 5853 5853 5853 5853 5853 5853 5854 5854 5854 5854 5854 5855 5855 5855 5854 5854 5854 5854 5854 5854 5855 5854 5854 5854 5853 5853 5852 5852 5851 5850 5849 5848 5847 5846 5845 5844 5843 5841 5840 5838
5852 5851 5851 5850 5850 5851 5851 5851 5851 5851 5851 5851 5852 5852 5852 5853 5853 5853 5853 5852 5852 5852 5852 5853 5853 5852 5852 5851 5851 5850 5849 5849 5848 5847 5846 5845 5844 5842 5841 5839 5838 5836 5834
5849 5849 5848 5848 5847 5848 5848 5848 5848 5848 5848 5849 5849 5849 5850 5850 5850 5850 5850 5850 5850 5850 5850 5850 5850 5850 5849 5849 5848 5848 5847 5846 5845 5844 5843 5841 5840 5839 5837 5835 5834 5832 5830
5847 5846 5845 5845 5844 5844 5844 5845 5845 5845 5845 5846 5846 5846 5847 5847 5847 5847 5848 5848 5848 5848 5848 5848 5847 5847 5847 5846 5845 5845 5844 5843 5842 5841 5839 5838 5836 5834 5833 5831 5829 5827 5826
5844 5843 5842 5842 5841 5841 5841 5841 5841 5842 5842 5842 5843 5843 5843 5844 5844 5844 5845 5845 5845 5845 5845 5845 5844 5844 5843 5843 5842 5841 5840 5839 5838 5837 5835 5834 5832 5830 5829 5827 5825 5823 5821
5841 5840 5839 5838 5838 5838 5838 5838 5838 5838 5838 5839 5839 5840 5840 5841 5841 5841 5841 5842 5842 5841 5841 5841 5841 5840 5840 5839 5838 5837 5836 5835 5833 5832 5831 5829 5828 5826 5824 5822 5820 5818 5816
5837 5836 5835 5835 5834 5834 5834 5834 5834 5834 5834 5835 5836 5836 5836 5837 5837 5838 5838 5838 5838 5838 5837 5837 5836 5836 5835 5834 5833 5832 5831 5830 5829 5827 5826 5825 5823 5821 5820 5818 5816 5813 5811
5832 5832 5831 5831 5831 5830 5830 5830 5830 5830 5830 5831 5832 5832 5832 5833 5833 5834 5834 5834 5834 5833 5833 5832 5832 5831 5830 5829 5828 5827 5826 5825 5824 5823 5821 5820 5818 5817 5815 5813 5811 5808 5806
5828 5827 5827 5826 5826 5826 5825 5825 5825 5825 5826 5826 5827 5827 5828 5828 5829 5829 5829 5829 5829 5829 5828 5827 5827 5826 5825 5824 5823 5822 5821 5820 5819 5818 5816 5815 5813 5811 5809 5807 5805 5803 5801
5823 5822 5822 5821 5821 5820 5820 5820 5820 5820 5821 5821 5822 5822 5823 5823 5824 5824 5824 5824 5824 5824 5823 5822 5821 5821 5820 5819 5818 5817 5816 5815 5814 5812 5811 5810 5808 5806 5804 5801 5799 5797 5794
5817 5817 5816 5816 5815 5815 5814 5814 5815 5815 5815 5816 5816 5817 5817 5818 5818 5818 5818 5818 5818 5818 5817 5817 5816 5815 5814 5813 5812 5811 5811 5810 5808 5807 5806 5804 5802 5800 5798 5795 5793 5790 5788
5811 5810 5810 5810 5809 5808 5808 5808 5808 5809 5809 5810 5810 5811 5811 5812 5812 5812 5812 5812 5812 5812 5812 5811 5810 5809 5808 5808 5807 5806 5805 5804 5803 5801 5800 5798 5796 5794 5792 5789 5787 5784 5781
5804 5804 5803 5803 5802 5802 5802 5802 5802 5802 5803 5803 5804 5804 5805 5805 5806 5806 5806 5806 5806 5806 5805 5805 5804 5803 5803 5802 5801 5800 5799 5797 5796 5795 5793 5792 5789 5787 5785 5782 5780 5777 5774
5796 5796 5796 5795 5795 5795 5795 5795 5795 5795 5796 5796 5797 5797 5798 5799 5799 5799 5799 5800 5800 5800 5799 5799 5798 5797 5796 5795 5794 5793 5792 5791 5790 5788 5787 5785 5782 5780 5778 5775 5772 5769 5766
5789 5788 5788 5787 5787 5787 5787 5787 5787 5788 5788 5789 5790 5790 5791 5791 5792 5792 5793 5793 5793 5793 5792 5792 5791 5790 5789 5788 5787 5786 5785 5784 5783 5781 5779 5777 5775 5773 5770 5768 5765 5762 5759